Torna al catalogo

CZ-6A DEB

AttivoSSO
NORAD 54899·DEBRIS·🇨🇳 China

Lanciato Nov 11, 2022 da Taiyuan Satellite Launch Center

Loading…

Prossimi Passaggi (prossime 24 ore)

TLE

AggiornatoSource: Space-Track

Epoca: Sep 12, 2026, 23:52 UTC

1 54899U 22151QL  26255.99466316  .00001923  00000-0  78031-3 0  9997
2 54899  98.7715 276.3500 0026516  58.8744 301.5033 14.28637129196221

Traccia CZ-6A DEB in tempo reale con AllMySat

Download on the App Store